This demonstration page uses our WeatherBlox Daily Observations layout. Learn more.

Left ArrowRight Arrow

41.12389, -100.76542

Hourly Observations for November 24, 2015

Temp ( °F °C ) Dew Point ( °F °C ) Humidity (%) Winds ( mph kmh ) Pressure ( in mb ) Visibility ( mi km ) Precip ( " mm )
12:53 am 00:53 Clear 27 -2.8 24 -4.4 89 89 ESE 6 9 29.91 1013 10 16 0.00 0.00
1:53 am 01:53 Clear 26 -3.3 23 -5 88 88 Calm 29.89 1012 10 16 0.00 0.00
2:53 am 02:53 Clear 23 -5 20 -6.7 88 88 Calm 29.89 1012 10 16 0.00 0.00
3:53 am 03:53 Clear 23 -5 19 -7.2 85 85 Calm 29.89 1012 10 16 0.00 0.00
4:53 am 04:53 Clear 21 -6.1 18 -7.8 88 88 Calm 29.91 1013 10 16 0.00 0.00
5:53 am 05:53 Clear 21 -6.1 18 -7.8 88 88 Calm 29.91 1013 10 16 0.00 0.00
6:53 am 06:53 Clear 19 -7.2 16 -8.9 88 88 E 5 7 29.92 1013 10 16 0.00 0.00
7:53 am 07:53 Sunny 19 -7.2 16 -8.9 88 88 Calm 29.93 1013 10 16 0.00 0.00
8:53 am 08:53 Sunny 24 -4.4 21 -6.1 88 88 Calm 29.93 1014 10 16 0.00 0.00
9:53 am 09:53 Sunny 32 0 27 -2.8 82 82 Calm 29.90 1013 10 16 0.00 0.00
10:53 am 10:53 Sunny 39 3.9 30 -1.1 70 70 Calm 29.89 1012 10 16 0.00 0.00
11:53 am 11:53 Sunny 45 7.2 31 -0.6 58 58 VRB 5 7 29.85 1011 10 16 0.00 0.00
12:53 pm 12:53 Sunny 48 8.9 31 -0.6 52 52 SE 5 7 29.82 1010 10 16 0.00 0.00
1:53 pm 13:53 Sunny 50 10 32 0 50 50 SE 5 7 29.79 1009 10 16 0.00 0.00
2:53 pm 14:53 Sunny 52 11.1 31 -0.6 45 45 SSE 5 7 29.78 1008 10 16 0.00 0.00
3:53 pm 15:53 Sunny 51 10.6 30 -1.1 44 44 SSW 9 15 29.80 1009 10 16 0.00 0.00
4:53 pm 16:53 Sunny 45 7.2 31 -0.6 58 58 SSE 6 9 29.82 1010 10 16 0.00 0.00
5:53 pm 17:53 Clear 39 3.9 29 -1.7 67 67 SSE 5 7 29.85 1011 10 16 0.00 0.00
6:53 pm 18:53 Clear 35 1.7 28 -2.2 76 76 SE 6 9 29.87 1012 10 16 0.00 0.00
7:53 pm 19:53 Clear 30 -1.1 25 -3.9 82 82 E 3 6 29.88 1012 10 16 0.00 0.00
8:53 pm 20:53 Clear 25 -3.9 23 -5 92 92 Calm 29.88 1012 10 16 0.00 0.00
9:53 pm 21:53 Clear 26 -3.3 22 -5.6 84 84 ENE 3 6 29.85 1011 10 16 0.00 0.00
10:53 pm 22:53 Clear 25 -3.9 22 -5.6 88 88 Calm 29.83 1010 10 16 0.00 0.00
11:53 pm 23:53 Clear 23 -5 19 -7.2 85 85 NW 5 7 29.82 1010 10 16 0.00 0.00

Powered by AerisWeather